Location: Holcomb Observatory
(44.4922°N, 73.1654°W)
Time: 03:02:51
(UTC-04:00)

Daily predictions for brighter satellites

Satellite Brightness Start Highest point End
(mag) Time Altitude Azimuth Time Altitude Azimuth Time Altitude Azimuth
Cosmos 1400 Rocket 3.8 00:05:57 34° E 00:06:02 34° E 00:09:47 10° NNE
Cosmos 304 Rocket 4.2 00:05:55 10° NNW 00:10:34 49° WSW 00:11:32 42° SW
Cosmos 1455 3.4 00:08:58 10° NNW 00:12:24 31° W 00:12:57 29° WSW
Cosmos 1666 Rocket 3.6 00:14:40 55° SSW 00:15:36 77° W 00:20:05 10° N
Cosmos 1844 Rocket 3.2 00:16:14 37° SE 00:17:08 40° ESE 00:22:20 10° NE
Cosmos 1943 4.5 00:14:19 10° NW 00:19:00 27° WSW 00:20:39 23° SW
Cosmos 1862 Rocket 3.9 00:17:53 10° N 00:22:10 52° ENE 00:22:52 46° ESE
Cosmos 967 Rocket 4.4 00:17:33 10° NW 00:23:57 81° WSW 00:26:22 41° SSE
Cosmos 1933 Rocket 3.9 00:24:43 48° ESE 00:25:07 49° E 00:29:21 10° NNE
Tsikada Rocket 4.0 00:23:22 41° S 00:25:48 82° E 00:32:11 10° N
In-Cosmos 22 Rocket 4.5 00:27:03 42° SE 00:28:25 52° E 00:33:49 10° NNE
CZ-2C R/B 3.4 00:28:02 43° S 00:29:55 68° WSW 00:35:39 10° NNW
Lacrosse 5 3.7 00:26:50 10° W 00:29:38 16° WSW 00:29:38 16° WSW
IKONOS-2 4.4 00:33:36 65° SSW 00:34:04 72° WSW 00:38:20 10° NNW
Cosmos 1633 Rocket 3.4 00:33:49 48° WSW 00:34:38 57° WNW 00:38:56 10° N
CZ-4C R/B 3.8 00:37:23 42° ENE 00:37:23 42° ENE 00:40:20 10° N
Cosmos 1892 3.7 00:41:16 35° E 00:41:16 35° E 00:44:49 10° NNE
Cosmos 2242 Rocket 3.9 00:42:07 10° NNW 00:46:38 57° W 00:47:18 51° SW
SAR-Lupe-2 4.4 00:47:58 42° E 00:48:08 42° ENE 00:51:33 10° N
SL-27 R/B 4.1 00:48:47 10° N 00:51:38 25° ENE 00:51:59 25° ENE
Cosmos 1703 Rocket 4.4 00:49:00 10° N 00:53:18 43° ENE 00:54:18 37° ESE
CZ-2C R/B 3.1 00:48:37 10° N 00:53:48 51° WNW 00:55:50 33° SW
Cosmos 968 Rocket 3.6 00:53:51 44° SW 00:55:28 72° WNW 01:00:46 10° NNE
Cosmos 1470 Rocket 3.8 01:01:55 50° WSW 01:02:37 57° WNW 01:07:01 10° N
Meteor 1-26 Rocket 4.1 00:57:38 10° N 01:03:13 90° W 01:04:49 49° S
Cosmos 2278 Rocket 2.8 01:03:25 36° SE 01:04:36 40° ESE 01:09:50 10° NE
BREEZE-M DEB 3.3 00:56:41 10° WSW 01:05:35 81° NNW 01:08:28 10° ENE
H-2A R/B 3.6 01:02:22 10° NNE 01:06:30 33° E 01:07:06 32° ESE
Cosmos 1844 3.6 01:07:55 48° SSW 01:09:32 80° ESE 01:15:09 10° NNE
Cosmos 1833 Rocket 4.4 01:06:38 10° N 01:11:28 28° NE 01:16:16 10° ESE
Cosmos 2084 Rocket 3.5 01:08:17 10° NW 01:11:30 53° W 01:11:30 53° W
Cosmos 1538 Rocket 4.1 01:06:47 10° NNW 01:12:07 64° WSW 01:13:18 50° SSW
SL-24 R/B - RUBIN 2 3.9 01:09:17 10° NW 01:14:46 66° WSW 01:15:39 55° S
Cosmos 1933 4.3 01:12:20 10° NNW 01:16:05 35° W 01:16:12 35° W
Cosmos 1869 Rocket 3.9 01:17:09 47° ESE 01:17:44 51° E 01:21:58 10° NNE
COSMOS 2406 3.5 01:12:24 10° NW 01:17:51 49° WSW 01:19:01 43° SW
Okean 1-7 3.4 01:16:09 10° N 01:20:25 55° E 01:21:18 46° ESE
Cosmos 923 Rocket 4.1 01:15:33 10° NNW 01:20:46 73° ENE 01:22:35 41° SE
Cosmos 2279 Rocket 4.0 01:15:28 10° N 01:21:45 77° E 01:24:20 38° SSE
ALOS 2 4.3 01:23:03 20° W 01:23:19 21° W 01:26:38 10° NW
CZ-4C R/B 2.5 01:22:53 31° WSW 01:25:30 63° NW 01:31:34 10° NNE
Meteor 2-10 Rocket 4.3 01:20:51 10° NNW 01:25:47 40° W 01:27:04 34° SW
Cosmos 1689 Rocket 2.9 01:27:08 51° NNW 01:27:08 51° NNW 01:29:36 10° NNW
Cosmos 1461 3.6 01:27:08 37° ESE 01:27:08 37° ESE 01:30:29 10° NE
CZ-4B R/B 1.9 01:31:59 54° WNW 01:31:59 54° WNW 01:35:05 10° NNW
Cosmos 1315 Rocket 3.5 01:34:45 40° W 01:35:07 42° WNW 01:38:52 10° N
Cosmos 2082 Rocket 3.2 01:31:05 10° NNW 01:36:26 43° ENE 01:41:12 13° SE
Landsat 5 3.6 01:36:20 56° SW 01:36:42 59° W 01:40:51 10° NNW
Meteor 2-3 Rocket 3.9 01:36:55 40° SW 01:38:57 66° WNW 01:44:46 10° N
PSLV R/B 3.9 01:39:18 10° NNE 01:43:37 56° E 01:44:33 46° SE
ATLAS 3B R/B 4.0 01:41:11 22° SE 01:44:07 29° ESE 01:50:06 10° NE
Cosmos 1825 2.5 01:46:16 51° ESE 01:46:37 53° E 01:50:21 10° NNE
Cosmos 2112 Rocket 4.0 01:45:39 10° NNW 01:50:58 87° ENE 01:53:06 38° SSE
Cosmos 1782 2.7 01:49:30 10° N 01:53:34 83° W 01:54:05 66° S
Cosmos 44 4.2 01:53:36 30° SE 01:54:17 31° ESE 01:58:16 10° NE
Meteor 2-6 Rocket 4.1 01:51:12 10° N 01:56:46 88° E 01:59:08 37° S
Meteor 1-27 Rocket 4.2 01:51:33 10° N 01:57:27 61° ENE 02:00:55 25° SSE
Abrixas 3.6 01:58:40 39° N 01:58:40 39° N 02:01:08 10° ENE
Cosmos 1408 2.3 01:59:38 78° SSE 01:59:50 85° E 02:03:28 10° N
Cosmos 1844 Rocket 3.9 01:57:53 19° WSW 02:01:06 33° NW 02:06:09 10° N
Timation 1 Rocket 4.3 01:59:59 39° SSW 02:02:23 86° ESE 02:08:23 10° NNE
Cosmos 44 Rocket 3.7 02:02:28 39° SSE 02:03:35 47° ESE 02:08:11 10° NE
Cosmos 1680 Rocket 3.5 01:58:36 10° NNW 02:03:49 63° WSW 02:05:27 42° SSW
Cosmos 1346 Rocket 3.8 02:06:07 10° NNW 02:09:33 31° W 02:09:33 31° W
Helios 1A Rocket 3.2 02:06:02 10° NNE 02:10:07 59° E 02:11:08 44° SSE
Aureole 1 Rocket 4.3 02:03:36 10° NNW 02:10:19 77° WSW 02:15:28 25° S
PSLV R/B 4.2 02:08:59 37° SE 02:10:29 66° ENE 02:14:38 10° N
Cosmos 1674 Rocket 4.4 02:07:11 10° N 02:11:30 47° ENE 02:13:45 25° SE
Cosmos 1937 Rocket 4.3 02:09:42 27° SSE 02:11:46 39° ESE 02:16:33 10° NE
Resurs 1-4 Rocket 4.0 02:11:15 10° NE 02:15:15 21° E 02:19:00 11° SE
Cosmos 2221 Rocket 4.5 02:14:29 10° NNW 02:18:29 33° W 02:19:08 31° WSW
Cosmos 1092 Rocket 4.1 02:16:54 30° S 02:20:13 74° E 02:26:29 10° NNE
Cosmos 1898 Rocket 3.5 02:22:53 36° S 02:25:00 73° ESE 02:30:15 10° NNE
SL-27 R/B 4.5 02:24:20 10° NW 02:25:39 16° WNW 02:25:39 16° WNW
Cosmos 1607 3.9 02:24:03 33° SSW 02:26:59 78° ESE 02:33:18 10° NE
SeaSat 1 2.3 02:26:04 25° SSE 02:29:01 84° WSW 02:34:00 10° NNW
CZ-2D R/B 3.7 02:26:02 10° NE 02:30:39 29° E 02:34:35 13° SSE
Cosmos 2026 Rocket 4.4 02:29:06 21° SSE 02:33:00 55° E 02:38:54 10° NNE
USA 238 DEB 4.4 02:31:18 24° S 02:35:04 43° ESE 02:41:35 10° NE
USA 238 4.4 02:31:24 23° S 02:35:11 43° ESE 02:41:41 10° NE
Cosmos 1606 3.8 02:32:21 10° NNW 02:35:43 29° W 02:36:00 28° W
ARIANE 5 R/B 4.1 02:32:43 10° NE 02:36:58 27° E 02:40:37 13° SSE
H-2A R/B 4.1 02:38:05 10° N 02:41:53 27° WNW 02:43:43 20° WSW
Cosmos 1340 2.6 02:38:28 10° NNW 02:42:14 66° W 02:43:13 45° SSW
SL-08 R/B 3.3 02:39:19 24° SSE 02:42:19 84° ENE 02:47:09 10° NNW
CBERS-1 4.1 02:39:24 10° NNE 02:44:32 72° ESE 02:47:21 27° S
Genesis I 4.5 02:46:04 22° W 02:47:53 33° NW 02:51:30 10° NNE
Cosmos 2278 Rocket 3.3 02:45:15 18° WSW 02:48:43 34° NW 02:53:52 10° N
Cosmos 858 Rocket 4.5 02:51:18 30° SSW 02:53:55 75° WNW 02:59:07 10° NNE
IRS-P3 4.1 02:48:39 10° NNE 02:54:01 82° WNW 02:57:02 27° SSW
Cosmos 1833 Rocket 2.9 02:50:12 10° NW 02:55:40 51° WSW 02:58:54 24° S
NPP 3.6 02:50:47 10° NNE 02:56:12 84° WNW 02:59:20 26° SSW
CZ-3B DEB 4.1 02:43:01 10° NW 02:56:19 84° SW 03:07:43 10° SE
Cosmos 2369 Rocket 3.8 02:54:36 10° SSE 02:59:02 26° ESE 03:03:36 10° NE
Cosmos 1655 Rocket 4.2 02:55:50 19° S 03:00:31 71° E 03:06:45 10° NNE
GP-B 3.1 02:57:51 10° N 03:02:16 66° W 03:04:28 28° SSW
COSMOS 2487 3.0 02:59:29 10° NW 03:02:49 39° WSW 03:03:26 35° SW
SL-16 R/B 2.6 03:01:44 10° SSE 03:07:58 87° ENE 03:14:16 10° NNW
Cosmos 2297 4.2 03:04:57 22° SW 03:08:26 50° WNW 03:13:58 10° NNE
UNK 3.8 03:04:25 14° SSE 03:08:29 80° ENE 03:13:11 10° N
Cosmos 1437 3.5 03:07:17 10° N 03:10:28 52° ENE 03:12:58 15° SSE
Cosmos 2298 Rocket 4.3 03:07:34 24° SW 03:10:38 58° WNW 03:15:54 10° NNE
USA 267 4.1 03:05:23 10° ENE 03:11:21 37° SE 03:15:50 17° S
Cosmos 1975 Rocket 3.3 03:10:15 10° N 03:14:35 68° E 03:18:43 11° SSE
Cosmos 1812 2.9 03:11:23 10° N 03:15:15 69° E 03:18:28 14° SSE
NOSS 3-2 (A) 4.4 03:11:19 15° S 03:15:44 37° ESE 03:21:38 10° NE
Exosat Rocket 4.4 03:12:54 10° NW 03:18:09 43° WSW 03:24:04 14° S
ADEOS Rocket 3.5 03:11:38 10° NNE 03:19:21 80° WNW 03:25:04 18° SSW
Cosmos 2082 Rocket 3.0 03:15:30 10° NW 03:20:20 30° WSW 03:22:59 21° SSW
Cosmos 1733 Rocket 4.3 03:19:01 19° WSW 03:21:01 27° WNW 03:24:46 10° NNW
Cosmos 2150 Rocket 4.5 03:19:04 21° SW 03:22:33 53° WNW 03:27:54 10° NNE
Meteor 1-25 Rocket 4.4 03:19:09 15° S 03:23:51 70° E 03:29:28 10° NNE
Meteor 1-14 Rocket 4.4 03:20:21 18° S 03:24:57 88° W 03:30:59 10° N
USA 161 4.2 03:31:14 10° ESE 03:32:50 16° ENE 03:34:32 10° NNE
Abrixas 3.8 03:31:03 10° WNW 03:33:39 37° N 03:36:14 10° E
ATLAS 3B R/B 3.0 03:28:26 17° SW 03:34:22 70° NW 03:41:32 10° NE
Cosmos 44 4.2 03:32:00 15° WSW 03:35:25 35° NW 03:39:32 10° NNE
S3M 4.0 03:32:47 10° NNW 03:38:59 73° W 03:45:05 10° S
Sich 1 Rocket 4.3 03:38:43 18° SW 03:41:39 40° WNW 03:45:59 10° N
ADEOS 3.6 03:38:23 10° NNE 03:43:37 81° WNW 03:48:13 14° SSW
MOZ.5/SAFIR/RUBIN 5/SL-8 3.9 03:40:45 10° SSE 03:45:30 83° ENE 03:50:16 10° NNW
Cosmos 1048 Rocket 4.1 03:40:33 10° NNW 03:45:58 84° ENE 03:51:21 10° SSE
Resurs 1-4 Rocket 2.4 03:50:13 10° N 03:55:25 54° WNW 04:00:04 13° SW
Okean 1 3.3 03:52:43 10° NNW 03:56:48 70° W 04:00:49 10° S
Cosmos 1633 2.6 03:54:43 11° S 03:58:16 86° E 04:01:55 10° N
MOS 1 Rocket 3.6 03:57:00 10° N 04:02:27 83° WNW 04:07:37 10° SSW
BREEZE M DEB (TANK) 3.6 04:00:33 10° WNW 04:02:39 28° N 04:04:54 10° ENE
BREEZE-M DEB (TANK) 3.3 03:56:48 12° SW 04:03:40 46° SSE 04:06:34 10° ENE
BREEZE M DEB (TANK) 3.2 04:04:02 11° S 04:05:30 19° SE 04:07:25 10° E
Meteor 1-13 Rocket 4.4 04:00:45 10° N 04:06:17 75° E 04:11:50 10° SSE
BREEZE-M DEB (TANK) 2.4 04:04:04 14° SW 04:06:19 77° SSE 04:13:16 10° ENE
SeaSat 1 4.3 04:05:50 10° WSW 04:07:11 11° W 04:08:47 10° W
BREEZE-M R/B 2.9 04:01:42 10° WNW 04:07:51 73° SSW 04:11:02 10° SE
Okean 2 Rocket 3.5 04:05:26 12° SSW 04:09:22 45° WNW 04:13:37 10° N
GRACE-1 3.7 04:07:41 10° S 04:10:22 72° W 04:13:04 10° N
GRACE-2 3.7 04:08:07 10° S 04:10:47 72° W 04:13:30 10° N
CZ-2D R/B 2.8 04:05:48 10° N 04:10:49 41° WNW 04:15:52 10° SW
Meteor 1-11 Rocket 4.3 04:06:40 10° S 04:12:17 63° E 04:18:03 10° NNE
ARIANE 5 R/B 3.2 04:11:35 10° N 04:16:10 38° WNW 04:20:45 10° SW
Cosmos 1125 Rocket 3.7 04:11:41 10° SSW 04:16:54 61° WNW 04:22:09 10° NNE
Cosmos 1441 Rocket 3.3 04:12:55 10° NNW 04:16:57 79° W 04:20:56 10° S
CZ-2D R/B 3.8 04:15:41 10° N 04:20:01 62° WNW 04:24:24 10° SSW
USA 238 DEB 4.4 04:19:16 10° WSW 04:25:59 48° NW 04:32:46 10° NNE
USA 238 4.4 04:19:21 10° WSW 04:26:05 49° NW 04:32:52 10° NNE
UNKNOWN OBJECT B 3.3 04:22:37 10° N 04:26:09 40° WNW 04:29:38 10° SW
Cosmos 1300 Rocket 3.8 04:24:07 10° S 04:28:33 77° E 04:33:00 10° NNE
